This is the latest recevied weather packets stored in our database for station/object WX4HP-13. If no packets are shown the sender has not sent any weather packets the latest 10 day(s).
| Time | Temp. | Humidity | Pressure | Rain* | Wind** | Luminosity | Snow |
|---|---|---|---|---|---|---|---|
| 1777917895 | 23.89° C | 44% | 1014.4 hPa | 0 mm | - | - | - |
| 1777917595 | 23.89° C | 44% | 1014.5 hPa | 0 mm | - | - | - |
| 1777917295 | 23.33° C | 45% | 1014.4 hPa | 0 mm | - | - | - |
| 1777916995 | 23.33° C | 44% | 1014.5 hPa | 0 mm | - | - | - |
| 1777916695 | 23.33° C | 45% | 1014.5 hPa | 0 mm | - | - | - |
| 1777916396 | 23.33° C | 46% | 1014.8 hPa | 0 mm | - | - | - |
| 1777916095 | 23.33° C | 45% | 1014.8 hPa | 0 mm | - | - | - |
| 1777915795 | 23.33° C | 46% | 1015 hPa | 0 mm | - | - | - |
| 1777915495 | 22.78° C | 45% | 1015 hPa | 0 mm | - | - | - |
| 1777915196 | 22.78° C | 47% | 1015.2 hPa | 0 mm | - | - | - |
| 1777914895 | 22.22° C | 46% | 1015.3 hPa | 0 mm | - | - | - |
| 1777914595 | 22.78° C | 46% | 1015.2 hPa | 0 mm | - | - | - |
| 1777914295 | 22.22° C | 49% | 1015.3 hPa | 0 mm | - | - | - |
| 1777913995 | 22.78° C | 46% | 1015.4 hPa | 0 mm | - | - | - |
| 1777913695 | 22.78° C | 45% | 1015.4 hPa | 0 mm | - | - | - |
| 1777913395 | 22.78° C | 48% | 1015.4 hPa | 0 mm | - | - | - |
| 1777913095 | 22.22° C | 48% | 1015.6 hPa | 0 mm | - | - | - |
| 1777912794 | 22.22° C | 48% | 1015.7 hPa | 0 mm | - | - | - |
| 1777912563 | 22.22° C | 49% | 1015.7 hPa | 0 mm | - | - | - |
| 1777912496 | 22.22° C | 49% | 1015.7 hPa | 0 mm | - | - | - |
| 1777912196 | 22.22° C | 49% | 1015.8 hPa | 0 mm | - | - | - |
| 1777911895 | 22.22° C | 47% | 1015.9 hPa | 0 mm | - | - | - |
| 1777911596 | 22.22° C | 49% | 1016.1 hPa | 0 mm | - | - | - |
| 1777911391 | 22.22° C | 48% | 1015.9 hPa | 0 mm | - | - | - |
| 1777911296 | 22.22° C | 48% | 1015.9 hPa | 0 mm | - | - | - |
* Rain latest hour (hover to see other rain measurements)
** Current wind speed in m/s (hover to see current wind gust speed)